RWD403 HKJK-HRYR

Flight info

Callsign RWD403
Flight time 1h 2m
Altitude 36000
Route IBRAT3E APLOG UL442 BOSAD BOSAD2A
Aircraft B737/M-SDE2E3FGHIRWXY/LB1

Departure

Time 2026-04-26 13:07
Airport Jomo Kenyatta International Airport (HKJK)

Arrival

Time 2026-04-26 14:10
Airport Kigali International Airport (HRYR)
Time Latitude Longitude Altitude Speed Heading
2026-04-26 12:32 -1.32869 36.92547 5337 ft 0 kts 193°
2026-04-26 12:52 -1.32862 36.92549 5337 ft 2 kts 193°
2026-04-26 12:52 -1.32848 36.92552 5337 ft 2 kts 193°
2026-04-26 12:52 -1.32833 36.92556 5337 ft 2 kts 193°
2026-04-26 12:53 -1.32818 36.92559 5337 ft 2 kts 193°
2026-04-26 12:53 -1.32804 36.92562 5337 ft 2 kts 193°
2026-04-26 12:53 -1.32789 36.92565 5337 ft 2 kts 193°
2026-04-26 12:53 -1.32778 36.92572 5337 ft 2 kts 242°
2026-04-26 12:54 -1.32775 36.92583 5337 ft 0 kts 281°
2026-04-26 12:54 -1.32778 36.92589 5337 ft 1 kts 287°
2026-04-26 12:54 -1.32778 36.92591 5337 ft 0 kts 286°
2026-04-26 12:56 -1.32778 36.92590 5337 ft 0 kts 286°
2026-04-26 12:57 -1.32771 36.92567 5337 ft 6 kts 285°
2026-04-26 12:57 -1.32763 36.92518 5337 ft 5 kts 273°
2026-04-26 12:57 -1.32764 36.92489 5337 ft 2 kts 266°
2026-04-26 12:58 -1.32767 36.92461 5337 ft 4 kts 258°
2026-04-26 12:58 -1.32777 36.92419 5337 ft 7 kts 257°
2026-04-26 12:58 -1.32802 36.92359 5337 ft 9 kts 241°
2026-04-26 12:58 -1.32833 36.92313 5337 ft 6 kts 231°
2026-04-26 12:59 -1.32850 36.92289 5337 ft 3 kts 245°
2026-04-26 12:59 -1.32843 36.92245 5337 ft 9 kts 311°
2026-04-26 12:59 -1.32798 36.92210 5337 ft 6 kts 317°
2026-04-26 12:59 -1.32792 36.92152 5337 ft 11 kts 239°
2026-04-26 13:00 -1.32838 36.92089 5337 ft 9 kts 233°
2026-04-26 13:00 -1.32870 36.92046 5337 ft 5 kts 233°
2026-04-26 13:00 -1.32886 36.92022 5337 ft 2 kts 237°
2026-04-26 13:00 -1.32904 36.91996 5337 ft 6 kts 237°
2026-04-26 13:01 -1.32946 36.91937 5337 ft 12 kts 234°
2026-04-26 13:01 -1.32996 36.91867 5338 ft 10 kts 241°
2026-04-26 13:01 -1.32982 36.91809 5338 ft 9 kts 324°
2026-04-26 13:01 -1.32917 36.91765 5338 ft 12 kts 325°
2026-04-26 13:02 -1.32846 36.91713 5338 ft 11 kts 323°
2026-04-26 13:02 -1.32838 36.91707 5338 ft 0 kts 322°
2026-04-26 13:03 -1.32831 36.91702 5338 ft 4 kts 322°
2026-04-26 13:03 -1.32776 36.91662 5338 ft 10 kts 339°
2026-04-26 13:03 -1.32722 36.91685 5338 ft 7 kts 51°
2026-04-26 13:03 -1.32717 36.91690 5338 ft 0 kts 54°
2026-04-26 13:06 -1.32696 36.91720 5338 ft 25 kts 55°
2026-04-26 13:07 -1.32451 36.92057 5337 ft 94 kts 55°
2026-04-26 13:07 -1.31929 36.92775 5337 ft 158 kts 54°
2026-04-26 13:07 -1.31196 36.93780 5577 ft 190 kts 55°
2026-04-26 13:07 -1.30458 36.94803 6508 ft 179 kts 55°
2026-04-26 13:08 -1.29716 36.95752 7152 ft 180 kts 52°
2026-04-26 13:08 -1.28874 36.96748 7644 ft 191 kts 52°
2026-04-26 13:08 -1.28026 36.97796 8145 ft 202 kts 54°
2026-04-26 13:08 -1.27192 36.98937 8720 ft 209 kts 56°
2026-04-26 13:09 -1.26294 37.00197 9112 ft 230 kts 56°
2026-04-26 13:09 -1.25319 37.01542 9652 ft 246 kts 54°
2026-04-26 13:09 -1.24247 37.02921 10226 ft 259 kts 46°
2026-04-26 13:09 -1.22678 37.03871 10761 ft 275 kts 15°
2026-04-26 13:10 -1.20738 37.03862 11298 ft 292 kts 346°
2026-04-26 13:10 -1.18922 37.02864 11811 ft 310 kts 318°
2026-04-26 13:10 -1.17649 37.01077 12341 ft 327 kts 294°
2026-04-26 13:10 -1.17207 36.98801 12866 ft 344 kts 270°
2026-04-26 13:11 -1.17490 36.96373 13394 ft 358 kts 260°
2026-04-26 13:11 -1.18025 36.93926 14114 ft 364 kts 258°
2026-04-26 13:11 -1.18574 36.91444 14892 ft 369 kts 259°
2026-04-26 13:11 -1.19063 36.88953 15656 ft 373 kts 261°
2026-04-26 13:12 -1.19514 36.86388 16425 ft 377 kts 262°
2026-04-26 13:12 -1.19938 36.83793 17090 ft 384 kts 262°
2026-04-26 13:12 -1.20354 36.81145 17811 ft 388 kts 262°
2026-04-26 13:12 -1.20773 36.78458 18525 ft 392 kts 262°
2026-04-26 13:13 -1.21192 36.75774 19040 ft 398 kts 262°
2026-04-26 13:13 -1.21621 36.73047 19213 ft 399 kts 262°
2026-04-26 13:13 -1.22056 36.70294 19387 ft 406 kts 263°
2026-04-26 13:13 -1.22490 36.67545 20321 ft 402 kts 262°
2026-04-26 13:14 -1.22932 36.64760 20993 ft 406 kts 263°
2026-04-26 13:14 -1.23374 36.61975 21596 ft 411 kts 263°
2026-04-26 13:14 -1.23824 36.59140 22226 ft 414 kts 263°
2026-04-26 13:14 -1.24272 36.56316 22838 ft 418 kts 263°
2026-04-26 13:15 -1.24730 36.53432 23462 ft 422 kts 263°
2026-04-26 13:15 -1.25185 36.50556 24038 ft 426 kts 263°
2026-04-26 13:15 -1.25652 36.47618 24628 ft 430 kts 262°
2026-04-26 13:15 -1.25964 36.45643 24998 ft 433 kts 262°
2026-04-26 13:16 -1.26596 36.41653 25732 ft 438 kts 262°
2026-04-26 13:16 -1.27066 36.38681 26278 ft 441 kts 262°
2026-04-26 13:16 -1.27546 36.35636 26801 ft 445 kts 262°
2026-04-26 13:16 -1.28032 36.32563 27334 ft 448 kts 262°
2026-04-26 13:17 -1.29008 36.26387 28315 ft 455 kts 262°
2026-04-26 13:17 -1.29504 36.23253 28804 ft 459 kts 262°
2026-04-26 13:18 -1.30496 36.16972 29990 ft 460 kts 262°
2026-04-26 13:18 -1.30993 36.13834 30782 ft 455 kts 262°
2026-04-26 13:18 -1.31977 36.07610 32046 ft 452 kts 262°
2026-04-26 13:19 -1.32466 36.04515 32675 ft 451 kts 262°
2026-04-26 13:19 -1.32952 36.01437 33267 ft 450 kts 262°
2026-04-26 13:19 -1.33439 35.98352 33857 ft 450 kts 262°
2026-04-26 13:19 -1.33921 35.95305 34407 ft 449 kts 262°
2026-04-26 13:20 -1.34409 35.92212 34988 ft 448 kts 262°
2026-04-26 13:20 -1.34890 35.89165 35536 ft 447 kts 262°
2026-04-26 13:20 -1.35375 35.86090 36030 ft 447 kts 262°
2026-04-26 13:20 -1.35856 35.83040 36267 ft 452 kts 262°
2026-04-26 13:21 -1.36347 35.79927 36269 ft 453 kts 262°
2026-04-26 13:21 -1.37317 35.73783 36280 ft 445 kts 262°
2026-04-26 13:22 -1.38284 35.67650 36268 ft 446 kts 262°
2026-04-26 13:22 -1.39254 35.61499 36264 ft 447 kts 262°
2026-04-26 13:23 -1.40218 35.55391 36254 ft 446 kts 262°
2026-04-26 13:23 -1.41183 35.49267 36262 ft 446 kts 262°
2026-04-26 13:24 -1.42157 35.43093 36266 ft 447 kts 262°
2026-04-26 13:24 -1.43116 35.37013 36263 ft 445 kts 262°
2026-04-26 13:25 -1.44095 35.30788 36244 ft 461 kts 262°
2026-04-26 13:25 -1.45108 35.24342 36232 ft 476 kts 262°
2026-04-26 13:26 -1.46139 35.17799 36225 ft 474 kts 262°
2026-04-26 13:26 -1.47158 35.11342 36217 ft 475 kts 262°
2026-04-26 13:27 -1.48180 35.04856 36198 ft 473 kts 262°
2026-04-26 13:27 -1.49202 34.98357 36188 ft 473 kts 262°
2026-04-26 13:28 -1.50221 34.91882 36187 ft 472 kts 263°
2026-04-26 13:28 -1.51021 34.85386 36189 ft 473 kts 265°
2026-04-26 13:29 -1.51623 34.78873 36185 ft 472 kts 266°
2026-04-26 13:29 -1.52215 34.72318 36170 ft 473 kts 266°
2026-04-26 13:30 -1.52825 34.65817 36167 ft 473 kts 266°
2026-04-26 13:30 -1.53457 34.59280 36147 ft 472 kts 266°
2026-04-26 13:31 -1.54096 34.52801 36145 ft 472 kts 266°
2026-04-26 13:31 -1.54746 34.46280 36128 ft 473 kts 266°
2026-04-26 13:32 -1.55401 34.39742 36129 ft 473 kts 266°
2026-04-26 13:32 -1.56056 34.33203 36130 ft 472 kts 266°
2026-04-26 13:33 -1.56706 34.26700 36124 ft 473 kts 266°
2026-04-26 13:33 -1.57359 34.20157 36123 ft 473 kts 266°
2026-04-26 13:34 -1.58003 34.13633 36119 ft 472 kts 266°
2026-04-26 13:34 -1.58643 34.07132 36119 ft 472 kts 266°
2026-04-26 13:35 -1.59285 34.00623 36115 ft 472 kts 266°
2026-04-26 13:35 -1.59926 33.94087 36113 ft 472 kts 266°
2026-04-26 13:36 -1.60565 33.87546 36106 ft 473 kts 266°
2026-04-26 13:36 -1.61202 33.81035 36102 ft 472 kts 266°
2026-04-26 13:37 -1.61839 33.74515 36098 ft 473 kts 266°
2026-04-26 13:37 -1.62475 33.68008 36096 ft 472 kts 266°
2026-04-26 13:38 -1.63115 33.61456 36095 ft 472 kts 266°
2026-04-26 13:38 -1.63751 33.54952 36096 ft 471 kts 266°
2026-04-26 13:39 -1.64385 33.48445 36095 ft 471 kts 266°
2026-04-26 13:39 -1.65012 33.41964 36095 ft 471 kts 266°
2026-04-26 13:40 -1.65642 33.35444 36095 ft 471 kts 266°
2026-04-26 13:40 -1.66268 33.28958 36095 ft 471 kts 266°
2026-04-26 13:41 -1.66899 33.22431 36096 ft 470 kts 266°
2026-04-26 13:41 -1.67524 33.15960 36100 ft 471 kts 266°
2026-04-26 13:42 -1.68151 33.09471 36100 ft 471 kts 266°
2026-04-26 13:42 -1.68778 33.02983 36096 ft 471 kts 266°
2026-04-26 13:43 -1.69412 32.96421 36091 ft 470 kts 266°
2026-04-26 13:43 -1.70040 32.89923 36084 ft 471 kts 265°
2026-04-26 13:44 -1.70663 32.83470 36083 ft 470 kts 266°
2026-04-26 13:44 -1.71292 32.76929 36085 ft 469 kts 265°
2026-04-26 13:45 -1.71915 32.70449 36084 ft 471 kts 265°
2026-04-26 13:45 -1.72543 32.63940 36081 ft 469 kts 265°
2026-04-26 13:46 -1.73183 32.57449 36080 ft 470 kts 265°
2026-04-26 13:46 -1.73837 32.50970 36080 ft 471 kts 265°
2026-04-26 13:47 -1.74495 32.44467 36079 ft 470 kts 265°
2026-04-26 13:47 -1.75145 32.38022 36077 ft 469 kts 265°
2026-04-26 13:48 -1.75799 32.31517 36072 ft 469 kts 265°
2026-04-26 13:48 -1.76454 32.24999 36069 ft 469 kts 265°
2026-04-26 13:49 -1.77103 32.18523 36068 ft 469 kts 265°
2026-04-26 13:49 -1.77752 32.12059 36067 ft 469 kts 265°
2026-04-26 13:50 -1.78404 32.05563 36066 ft 469 kts 265°
2026-04-26 13:50 -1.79052 31.99086 36067 ft 468 kts 265°
2026-04-26 13:51 -1.79700 31.92622 36067 ft 470 kts 265°
2026-04-26 13:51 -1.80349 31.86132 36075 ft 468 kts 265°
2026-04-26 13:52 -1.80994 31.79662 36080 ft 468 kts 265°
2026-04-26 13:52 -1.81633 31.73255 35548 ft 461 kts 265°
2026-04-26 13:52 -1.81948 31.70098 34926 ft 458 kts 265°
2026-04-26 13:53 -1.82268 31.66904 34204 ft 459 kts 265°
2026-04-26 13:53 -1.82581 31.63752 33462 ft 460 kts 265°
2026-04-26 13:53 -1.82898 31.60566 32687 ft 460 kts 265°
2026-04-26 13:53 -1.83212 31.57405 31958 ft 460 kts 265°
2026-04-26 13:54 -1.83530 31.54195 31162 ft 462 kts 265°
2026-04-26 13:54 -1.83848 31.51011 30339 ft 464 kts 265°
2026-04-26 13:54 -1.84164 31.47817 29503 ft 465 kts 265°
2026-04-26 13:55 -1.84801 31.41372 28259 ft 475 kts 265°
2026-04-26 13:55 -1.85021 31.39168 27815 ft 475 kts 265°
2026-04-26 13:55 -1.85779 31.31581 26233 ft 468 kts 265°
2026-04-26 13:56 -1.86101 31.28364 25545 ft 465 kts 265°
2026-04-26 13:56 -1.86422 31.25162 24858 ft 462 kts 265°
2026-04-26 13:56 -1.86741 31.21985 24174 ft 459 kts 265°
2026-04-26 13:56 -1.87058 31.18842 23493 ft 456 kts 265°
2026-04-26 13:57 -1.87377 31.15683 22813 ft 453 kts 265°
2026-04-26 13:57 -1.87692 31.12549 22141 ft 450 kts 265°
2026-04-26 13:57 -1.88000 31.09482 21481 ft 447 kts 265°
2026-04-26 13:57 -1.88307 31.06399 20803 ft 444 kts 265°
2026-04-26 13:58 -1.88609 31.03377 20133 ft 441 kts 265°
2026-04-26 13:58 -1.88911 31.00344 19457 ft 439 kts 265°
2026-04-26 13:58 -1.89216 30.97288 18769 ft 436 kts 265°
2026-04-26 13:58 -1.89514 30.94297 18088 ft 433 kts 265°
2026-04-26 13:59 -1.89808 30.91340 17412 ft 430 kts 265°
2026-04-26 13:59 -1.90101 30.88398 16742 ft 427 kts 265°
2026-04-26 13:59 -1.90393 30.85458 16060 ft 424 kts 264°
2026-04-26 14:00 -1.92074 30.76903 14035 ft 415 kts 254°
2026-04-26 14:00 -1.92887 30.74128 13454 ft 407 kts 253°
2026-04-26 14:00 -1.93426 30.72354 13169 ft 395 kts 253°
2026-04-26 14:01 -1.94465 30.68948 12567 ft 374 kts 253°
2026-04-26 14:01 -1.95201 30.66507 11908 ft 367 kts 253°
2026-04-26 14:01 -1.95914 30.64107 11376 ft 357 kts 253°
2026-04-26 14:01 -1.96603 30.61755 11276 ft 340 kts 253°
2026-04-26 14:02 -1.97246 30.59542 11188 ft 327 kts 253°
2026-04-26 14:02 -1.97885 30.57338 10896 ft 328 kts 253°
2026-04-26 14:02 -1.98514 30.55167 10488 ft 327 kts 253°
2026-04-26 14:02 -1.99143 30.52991 9986 ft 327 kts 253°
2026-04-26 14:03 -1.99774 30.50810 9540 ft 326 kts 253°
2026-04-26 14:03 -2.00405 30.48635 9015 ft 321 kts 253°
2026-04-26 14:03 -2.01009 30.46549 8600 ft 312 kts 253°
2026-04-26 14:03 -2.01595 30.44507 8449 ft 294 kts 255°
2026-04-26 14:04 -2.01892 30.42559 8330 ft 275 kts 270°
2026-04-26 14:04 -2.01700 30.40740 8246 ft 258 kts 282°
2026-04-26 14:04 -2.01299 30.39030 8171 ft 244 kts 283°
2026-04-26 14:04 -2.00968 30.37420 8096 ft 231 kts 281°
2026-04-26 14:05 -2.00714 30.35880 8020 ft 219 kts 279°
2026-04-26 14:05 -2.00470 30.34421 7950 ft 207 kts 280°
2026-04-26 14:05 -2.00223 30.33018 7880 ft 201 kts 281°
2026-04-26 14:05 -1.99979 30.31646 7814 ft 201 kts 281°
2026-04-26 14:06 -1.99738 30.30268 7724 ft 202 kts 281°
2026-04-26 14:06 -1.99492 30.28883 7486 ft 205 kts 281°
2026-04-26 14:06 -1.99245 30.27486 7211 ft 204 kts 281°
2026-04-26 14:06 -1.99005 30.26111 6944 ft 202 kts 281°
2026-04-26 14:07 -1.98771 30.24760 6689 ft 189 kts 282°
2026-04-26 14:07 -1.98551 30.23500 6445 ft 178 kts 282°
2026-04-26 14:07 -1.98344 30.22330 6223 ft 166 kts 283°
2026-04-26 14:07 -1.98154 30.21241 6021 ft 155 kts 283°
2026-04-26 14:08 -1.97964 30.20177 5826 ft 156 kts 283°
2026-04-26 14:08 -1.97771 30.19110 5621 ft 154 kts 283°
2026-04-26 14:08 -1.97599 30.18051 5450 ft 154 kts 283°
2026-04-26 14:08 -1.97401 30.17000 5293 ft 156 kts 284°
2026-04-26 14:09 -1.97211 30.15922 5050 ft 159 kts 283°
2026-04-26 14:09 -1.97024 30.14831 4877 ft 152 kts 282°
2026-04-26 14:09 -1.96857 30.13867 4892 ft 131 kts 284°
2026-04-26 14:09 -1.96704 30.13079 4887 ft 95 kts 280°
2026-04-26 14:10 -1.96642 30.12694 4877 ft 36 kts 278°
2026-04-26 14:10 -1.96615 30.12484 4871 ft 17 kts 265°
2026-04-26 14:10 -1.96603 30.12411 4869 ft 10 kts 34°
2026-04-26 14:10 -1.96604 30.12466 4870 ft 6 kts 102°
2026-04-26 14:11 -1.96649 30.12730 4878 ft 38 kts 99°
2026-04-26 14:11 -1.96662 30.12937 4884 ft 21 kts 51°
2026-04-26 14:11 -1.96562 30.13025 4884 ft 17 kts 44°
2026-04-26 14:12 -1.96550 30.13119 4888 ft 10 kts 103°
2026-04-26 14:12 -1.96562 30.13177 4891 ft 8 kts 100°
2026-04-26 14:12 -1.96573 30.13238 4894 ft 9 kts 100°
2026-04-26 14:12 -1.96582 30.13287 4895 ft 6 kts 99°
2026-04-26 14:13 -1.96608 30.13470 4895 ft 17 kts 72°
2026-04-26 14:13 -1.96546 30.13499 4896 ft 0 kts 348°
2026-04-26 14:13 -1.96526 30.13491 4896 ft 5 kts 327°
2026-04-26 14:14 -1.96484 30.13459 4895 ft 9 kts 324°
2026-04-26 14:14 -1.96442 30.13431 4895 ft 0 kts 324°